Leander, TX

1:06 PM CDT on August 28, 2016 (GMT -0500)
Lago Vista

Weather History for KRYW - October, 2013

Change the Weather History Date:

Friday, October 4, 2013

  Actual Average (KATT) Record (KATT)
Temperature  
Mean Temperature 79 °F 75 °F  
Max Temperature 87 °F 85 °F 98 °F (1929)
Min Temperature 71 °F 64 °F 47 °F (1975)
Degree Days  
Heating Degree Days 0 0  
Month to date heating degree days 0  
Since 1 July heating degree days 2  
Cooling Degree Days 14 10  
Month to date cooling degree days 41  
Year to date cooling degree days 2885  
Growing Degree Days 29 (Base 50)    
Moisture  
Dew Point 67 °F    
Average Humidity 70    
Maximum Humidity 94    
Minimum Humidity 46    
Precipitation  
Precipitation 0.00 in 0.11 in 3.57 in (1930)
Month to date precipitation 0.42  
Year to date precipitation 25.50  
Snow  
Snow 0.00 in - - ()
Month to date snowfall  
Since 1 July snowfall  
Since 1 September snowfall  
Snow Depth -    
Sea Level Pressure  
Sea Level Pressure 29.91 in    
Wind  
Wind Speed 10 mph (South)    
Max Wind Speed 20 mph    
Max Gust Speed 26 mph    
Visibility 10 miles    
Events      
T = Trace of Precipitation, MM = Missing Value Source: NWS Daily Summary

Daily Weather History Graph

Daily Weather History Graph

Search for Another Location

Airport or City:

Trip Planner

Search our weather history database for the weather conditions in past years. The results will help you decide how hot, cold, wet, or windy it might be!

Date:

Astronomy

Oct. 04, 2013 Rise Set
Actual Time 7:27 AM CDT 7:13 PM CDT
Civil Twilight 7:03 AM CDT 7:37 PM CDT
Nautical Twilight 6:35 AM CDT 8:04 PM CDT
Astronomical Twilight 6:07 AM CDT 8:32 PM CDT
Moon 7:03 AM CDT (10/4) 6:59 PM CDT (10/4)
Length of Visible Light 12h 33m
Length of Day
11h 45m
Waning Crescent, 0% of the Moon is Illuminated
Oct 4
Waning Crescent
Oct 4
New
Oct 11
First Quarter
Oct 18
Full
Oct 26
Last Quarter

Hourly Weather History & Observations

Time (CDT) Temp. Heat Index Dew Point Humidity Pressure Visibility Wind Dir Wind Speed Gust Speed Precip Events Conditions
12:15 AM 75.2 °F - 68.0 °F 78% 29.93 in 10.0 mi SSE 9.2 mph - N/A   Clear
12:35 AM 75.2 °F - 68.0 °F 78% 29.92 in 10.0 mi South 8.1 mph - N/A   Clear
12:55 AM 73.4 °F - 68.0 °F 83% 29.92 in 10.0 mi South 8.1 mph - N/A   Clear
1:15 AM 73.4 °F - 68.0 °F 83% 29.92 in 10.0 mi South 11.5 mph 17.3 mph N/A   Clear
1:35 AM 73.4 °F - 68.0 °F 83% 29.92 in 10.0 mi South 12.7 mph 19.6 mph N/A   Clear
1:55 AM 73.4 °F - 69.8 °F 88% 29.92 in 10.0 mi South 12.7 mph 20.7 mph N/A   Scattered Clouds
2:15 AM 73.4 °F - 69.8 °F 88% 29.92 in 10.0 mi South 11.5 mph 19.6 mph N/A   Overcast
2:35 AM 73.4 °F - 69.8 °F 88% 29.92 in 10.0 mi South 11.5 mph 20.7 mph N/A   Overcast
2:55 AM 73.4 °F - 69.8 °F 88% 29.92 in 10.0 mi South 12.7 mph 18.4 mph N/A   Overcast
3:15 AM 73.4 °F - 69.8 °F 88% 29.92 in 10.0 mi South 10.4 mph - N/A   Overcast
3:35 AM 73.4 °F - 69.8 °F 88% 29.92 in 10.0 mi South 10.4 mph - N/A   Overcast
3:55 AM 73.4 °F - 69.8 °F 88% 29.91 in 10.0 mi South 9.2 mph - N/A   Overcast
4:15 AM 73.4 °F - 69.8 °F 88% 29.91 in 10.0 mi South 11.5 mph 23.0 mph N/A   Overcast
4:35 AM 73.4 °F - 69.8 °F 88% 29.91 in 10.0 mi South 13.8 mph 18.4 mph N/A   Overcast
4:55 AM 73.4 °F - 69.8 °F 88% 29.91 in 10.0 mi South 9.2 mph 17.3 mph N/A   Overcast
5:15 AM 71.6 °F - 69.8 °F 94% 29.91 in 10.0 mi South 10.4 mph - N/A   Scattered Clouds
5:35 AM 71.6 °F - 69.8 °F 94% 29.90 in 10.0 mi South 11.5 mph 16.1 mph N/A   Clear
5:55 AM 71.6 °F - 68.0 °F 88% 29.91 in 10.0 mi South 9.2 mph 17.3 mph N/A   Clear
6:15 AM 71.6 °F - 69.8 °F 94% 29.92 in 10.0 mi South 10.4 mph 16.1 mph N/A   Mostly Cloudy
6:35 AM 71.6 °F - 69.8 °F 94% 29.92 in 10.0 mi South 9.2 mph 17.3 mph N/A   Overcast
6:55 AM 71.6 °F - 69.8 °F 94% 29.93 in 10.0 mi South 10.4 mph - N/A   Overcast
7:15 AM 71.6 °F - 69.8 °F 94% 29.93 in 10.0 mi South 6.9 mph - N/A   Overcast
7:35 AM 71.6 °F - 69.8 °F 94% 29.93 in 10.0 mi South 8.1 mph - N/A   Overcast
7:55 AM 71.6 °F - 68.0 °F 88% 29.93 in 10.0 mi South 10.4 mph - N/A   Mostly Cloudy
8:15 AM 71.6 °F - 68.0 °F 88% 29.93 in 10.0 mi South 10.4 mph - N/A   Scattered Clouds
8:35 AM 73.4 °F - 69.8 °F 88% 29.94 in 10.0 mi South 5.8 mph - N/A   Scattered Clouds
8:55 AM 73.4 °F - 68.0 °F 83% 29.94 in 10.0 mi South 8.1 mph 16.1 mph N/A   Scattered Clouds
9:15 AM 77.0 °F - 68.0 °F 74% 29.94 in 10.0 mi South 9.2 mph 18.4 mph N/A   Mostly Cloudy
9:35 AM 75.2 °F - 68.0 °F 78% 29.95 in 10.0 mi SSW 15.0 mph 24.2 mph N/A   Overcast
9:55 AM 75.2 °F - 68.0 °F 78% 29.95 in 10.0 mi SSW 13.8 mph 20.7 mph N/A   Mostly Cloudy
10:15 AM 77.0 °F - 68.0 °F 74% 29.95 in 10.0 mi South 17.3 mph 26.5 mph N/A   Scattered Clouds
10:35 AM 77.0 °F - 68.0 °F 74% 29.95 in 10.0 mi SSW 11.5 mph 17.3 mph N/A   Scattered Clouds
10:55 AM 80.6 °F 82.7 °F 66.2 °F 61% 29.95 in 10.0 mi SSW 12.7 mph 21.9 mph N/A   Scattered Clouds
11:15 AM 82.4 °F 84.6 °F 66.2 °F 58% 29.94 in 10.0 mi South 19.6 mph 25.3 mph N/A   Scattered Clouds
11:35 AM 82.4 °F 84.6 °F 66.2 °F 58% 29.94 in 10.0 mi South 12.7 mph 19.6 mph N/A   Mostly Cloudy
11:55 AM 82.4 °F 83.9 °F 64.4 °F 54% 29.93 in 10.0 mi SSW 12.7 mph 18.4 mph N/A   Mostly Cloudy
12:15 PM 82.4 °F 83.9 °F 64.4 °F 54% 29.93 in 10.0 mi South 9.2 mph 17.3 mph N/A   Scattered Clouds
12:35 PM 82.4 °F 83.9 °F 64.4 °F 54% 29.93 in 10.0 mi SSW 13.8 mph 18.4 mph N/A   Scattered Clouds
12:55 PM 84.2 °F 85.6 °F 64.4 °F 51% 29.93 in 10.0 mi South 8.1 mph 17.3 mph N/A   Mostly Cloudy
1:15 PM 84.2 °F 85.6 °F 64.4 °F 51% 29.92 in 10.0 mi SSW 9.2 mph 20.7 mph N/A   Mostly Cloudy
1:35 PM 86.0 °F 87.3 °F 64.4 °F 48% 29.92 in 10.0 mi South 11.5 mph 19.6 mph N/A   Mostly Cloudy
1:55 PM 87.8 °F 89.4 °F 64.4 °F 46% 29.90 in 10.0 mi South 12.7 mph 18.4 mph N/A   Mostly Cloudy
2:15 PM 86.0 °F 87.3 °F 64.4 °F 48% 29.90 in 10.0 mi SSW 8.1 mph 16.1 mph N/A   Scattered Clouds
2:35 PM 87.8 °F 89.4 °F 64.4 °F 46% 29.89 in 10.0 mi SSE 8.1 mph 16.1 mph N/A   Scattered Clouds
2:55 PM 87.8 °F 89.4 °F 64.4 °F 46% 29.88 in 10.0 mi South 6.9 mph 18.4 mph N/A   Scattered Clouds
3:15 PM 87.8 °F 89.4 °F 64.4 °F 46% 29.88 in 10.0 mi South 12.7 mph 19.6 mph N/A   Scattered Clouds
3:35 PM 87.8 °F 89.4 °F 64.4 °F 46% 29.88 in 10.0 mi SSW 9.2 mph 20.7 mph N/A   Scattered Clouds
3:55 PM 86.0 °F 87.3 °F 64.4 °F 48% 29.88 in 10.0 mi South 10.4 mph 20.7 mph N/A   Scattered Clouds
4:15 PM 87.8 °F 89.4 °F 64.4 °F 46% 29.88 in 10.0 mi South 16.1 mph 20.7 mph N/A   Scattered Clouds
4:35 PM 87.8 °F 89.4 °F 64.4 °F 46% 29.88 in 10.0 mi SSE 11.5 mph 19.6 mph N/A   Scattered Clouds
4:55 PM 87.8 °F 89.4 °F 64.4 °F 46% 29.87 in 10.0 mi South 9.2 mph 18.4 mph N/A   Scattered Clouds
5:15 PM 86.0 °F 87.3 °F 64.4 °F 48% 29.88 in 10.0 mi South 9.2 mph - N/A   Scattered Clouds
5:35 PM 87.8 °F 89.4 °F 64.4 °F 46% 29.88 in 10.0 mi South 5.8 mph - N/A   Clear
5:55 PM 87.8 °F 89.4 °F 64.4 °F 46% 29.87 in 10.0 mi South 9.2 mph - N/A   Mostly Cloudy
6:15 PM 86.0 °F 87.3 °F 64.4 °F 48% 29.87 in 10.0 mi South 8.1 mph - N/A   Scattered Clouds
6:35 PM 86.0 °F 87.3 °F 64.4 °F 48% 29.88 in 10.0 mi SSE 5.8 mph - N/A   Scattered Clouds
6:55 PM 84.2 °F 85.6 °F 64.4 °F 51% 29.88 in 10.0 mi SSE 4.6 mph - N/A   Scattered Clouds
7:15 PM 82.4 °F 84.6 °F 66.2 °F 58% 29.89 in 10.0 mi SSE 4.6 mph - N/A   Mostly Cloudy
7:35 PM 82.4 °F 84.6 °F 66.2 °F 58% 29.89 in 10.0 mi SSE 3.5 mph - N/A   Scattered Clouds
7:55 PM 82.4 °F 84.6 °F 66.2 °F 58% 29.89 in 10.0 mi SSE 3.5 mph - N/A   Scattered Clouds
8:15 PM 80.6 °F 82.7 °F 66.2 °F 61% 29.90 in 10.0 mi SSE 3.5 mph - N/A   Scattered Clouds
8:35 PM 80.6 °F 82.7 °F 66.2 °F 61% 29.91 in 10.0 mi SSE 3.5 mph - N/A   Scattered Clouds
8:55 PM 80.6 °F 82.7 °F 66.2 °F 61% 29.92 in 10.0 mi SE 4.6 mph - N/A   Mostly Cloudy
9:15 PM 80.6 °F 83.2 °F 68.0 °F 65% 29.93 in 10.0 mi SE 6.9 mph - N/A   Mostly Cloudy
9:35 PM 80.6 °F 83.9 °F 69.8 °F 70% 29.93 in 10.0 mi SSE 6.9 mph 16.1 mph N/A   Clear
9:55 PM 80.6 °F 83.9 °F 69.8 °F 70% 29.93 in 10.0 mi SSE 8.1 mph 18.4 mph N/A   Scattered Clouds
10:15 PM 78.8 °F - 69.8 °F 74% 29.93 in 10.0 mi SSE 9.2 mph - N/A   Scattered Clouds
10:35 PM 78.8 °F - 69.8 °F 74% 29.93 in 10.0 mi SSE 10.4 mph 18.4 mph N/A   Clear
10:55 PM 78.8 °F - 69.8 °F 74% 29.93 in 10.0 mi SSE 11.5 mph 21.9 mph N/A   Clear
11:15 PM 77.0 °F - 69.8 °F 78% 29.93 in 10.0 mi SSE 12.7 mph 18.4 mph N/A   Clear
11:35 PM 77.0 °F - 69.8 °F 78% 29.93 in 10.0 mi SE 9.2 mph 19.6 mph N/A   Clear
11:55 PM 77.0 °F - 69.8 °F 78% 29.93 in 10.0 mi SSE 9.2 mph 19.6 mph N/A   Clear